TimeEST,TemperatureF,Dew PointF,Humidity,Sea Level PressureIn,VisibilityMPH,Wind Direction,Wind SpeedMPH,Gust SpeedMPH,PrecipitationIn,Events,Conditions,WindDirDegrees,DateUTC
12:48 AM,44.6,42.8,93,29.98,6.0,ENE,10.4,-,0.00,,Overcast,60,2012-12-10 05:48:00
12:51 AM,45.0,43.0,93,29.98,6.0,ENE,12.7,-,0.00,,Overcast,60,2012-12-10 05:51:00
1:15 AM,44.6,42.8,93,29.98,6.0,NE,10.4,-,N/A,,Overcast,40,2012-12-10 06:15:00
1:51 AM,45.0,44.1,97,29.95,5.0,NE,10.4,-,0.00,,Overcast,40,2012-12-10 06:51:00
2:51 AM,46.0,45.0,96,29.92,5.0,NE,6.9,-,0.01,,Overcast,40,2012-12-10 07:51:00
2:59 AM,46.4,44.6,93,29.92,1.0,ENE,6.9,-,0.00,Rain,Light Rain,60,2012-12-10 07:59:00
3:48 AM,46.4,44.6,93,29.88,0.5,NE,5.8,-,0.02,Fog-Rain,Light Rain,50,2012-12-10 08:48:00
3:51 AM,46.0,45.0,96,29.88,0.5,NE,4.6,-,0.02,Fog-Rain,Light Rain,50,2012-12-10 08:51:00
4:49 AM,46.4,46.4,100,29.85,0.2,ENE,3.5,-,0.00,Fog,Fog,70,2012-12-10 09:49:00
4:51 AM,46.9,46.0,97,29.86,0.2,ENE,3.5,-,0.00,Fog,Fog,70,2012-12-10 09:51:00
5:43 AM,46.4,46.4,100,29.84,0.5,Calm,Calm,-,N/A,Fog,Fog,0,2012-12-10 10:43:00
5:51 AM,46.9,46.0,97,29.84,0.5,Calm,Calm,-,N/A,Fog,Fog,0,2012-12-10 10:51:00
6:51 AM,48.9,48.0,97,29.82,0.1,SSW,3.5,-,N/A,Fog,Fog,200,2012-12-10 11:51:00
7:51 AM,51.1,50.0,96,29.81,0.1,South,4.6,-,N/A,Fog,Fog,170,2012-12-10 12:51:00
8:51 AM,52.0,51.1,97,29.79,0.1,SSW,4.6,-,N/A,Fog,Fog,210,2012-12-10 13:51:00
9:51 AM,54.0,53.1,97,29.76,0.1,South,5.8,-,0.00,,Light Drizzle,180,2012-12-10 14:51:00
10:39 AM,55.4,53.6,94,29.74,0.5,Variable,3.5,-,0.00,,Overcast,0,2012-12-10 15:39:00
10:51 AM,55.9,54.0,93,29.73,0.5,Variable,4.6,-,0.00,,Overcast,0,2012-12-10 15:51:00
11:51 AM,55.9,54.0,93,29.70,0.5,Variable,4.6,-,N/A,,Overcast,0,2012-12-10 16:51:00
12:51 PM,57.9,55.9,93,29.66,0.5,SSW,3.5,-,N/A,,Overcast,210,2012-12-10 17:51:00
1:45 PM,60.8,57.2,88,29.63,2.5,Variable,4.6,-,N/A,,Overcast,0,2012-12-10 18:45:00
1:51 PM,59.0,55.9,90,29.63,2.5,SE,5.8,-,N/A,,Overcast,140,2012-12-10 18:51:00
2:31 PM,60.8,57.2,88,29.62,2.5,SW,4.6,-,N/A,,Overcast,220,2012-12-10 19:31:00
2:51 PM,59.0,57.0,93,29.61,2.5,South,4.6,-,0.00,,Light Drizzle,180,2012-12-10 19:51:00
3:20 PM,57.2,55.4,94,29.60,2.0,South,5.8,-,N/A,,Overcast,180,2012-12-10 20:20:00
3:51 PM,57.9,55.9,93,29.60,2.0,South,4.6,-,0.00,,Light Drizzle,180,2012-12-10 20:51:00
4:31 PM,57.2,55.4,94,29.58,3.0,South,3.5,-,0.00,,Light Drizzle,180,2012-12-10 21:31:00
4:51 PM,59.0,57.0,93,29.57,3.0,SW,5.8,-,0.00,,Overcast,220,2012-12-10 21:51:00
5:51 PM,60.1,55.9,86,29.57,7.0,WSW,5.8,-,N/A,,Overcast,240,2012-12-10 22:51:00
6:51 PM,59.0,55.0,87,29.56,7.0,WSW,4.6,-,N/A,,Overcast,240,2012-12-10 23:51:00
7:51 PM,60.1,55.0,83,29.56,7.0,SSW,5.8,-,N/A,,Overcast,210,2012-12-11 00:51:00
8:51 PM,59.0,55.0,87,29.55,7.0,SW,8.1,-,N/A,,Overcast,220,2012-12-11 01:51:00
9:51 PM,59.0,55.0,87,29.56,7.0,SSW,6.9,-,N/A,,Overcast,210,2012-12-11 02:51:00
10:51 PM,57.9,55.0,90,29.57,6.0,SSW,8.1,-,N/A,,Overcast,210,2012-12-11 03:51:00
11:51 PM,57.9,55.0,90,29.56,6.0,WSW,3.5,-,N/A,,Overcast,240,2012-12-11 04:51:00